CDT,Max TemperatureF,Mean TemperatureF,Min TemperatureF,Max Dew PointF,MeanDew PointF,Min DewpointF,Max Humidity, Mean Humidity, Min Humidity, Max Sea Level PressureIn, Mean Sea Level PressureIn, Min Sea Level PressureIn, Max VisibilityMiles, Mean VisibilityMiles, Min VisibilityMiles, Max Wind SpeedMPH, Mean Wind SpeedMPH, Max Gust SpeedMPH,PrecipitationIn, CloudCover, Events, WindDirDegrees
2013-8-1,89,76,62,68,63,58,100,68,36,30.12,30.02,29.89,10,8,1,29,10,36,0.69,2,Rain-Thunderstorm,101
2013-8-2,84,75,65,68,65,62,93,74,55,30.00,29.90,29.80,10,10,9,28,9,36,0.06,3,Rain-Thunderstorm,100
2013-8-3,80,71,62,61,59,58,90,71,52,30.17,30.10,30.03,10,10,10,16,8,20,0.00,4,,43
2013-8-4,79,70,61,66,62,56,90,76,61,30.17,30.10,30.01,10,10,10,20,8,26,0.00,6,,117
2013-8-5,86,78,70,72,70,66,97,81,65,30.01,29.91,29.83,10,10,7,18,6,22,0.00,6,,199
2013-8-6,88,78,67,72,70,65,100,79,58,29.94,29.85,29.78,10,7,2,22,6,26,T,3,Rain,263
2013-8-7,85,76,66,70,62,56,87,64,40,29.99,29.93,29.82,10,10,10,15,7,23,0.00,0,,15
2013-8-8,79,72,65,65,62,59,84,69,54,30.02,30.00,29.95,10,10,10,10,5,14,0.00,1,,120
2013-8-9,83,72,60,66,63,57,93,68,43,30.15,30.07,30.02,10,10,7,14,5,17,0.00,2,,15
2013-8-10,84,69,54,63,60,54,93,70,47,30.20,30.14,30.07,10,10,9,15,7,24,0.00,0,,183
2013-8-11,87,74,61,67,64,59,93,72,51,30.12,30.05,29.99,10,10,7,17,8,23,0.01,1,,193
2013-8-12,85,75,65,70,66,61,93,69,44,30.07,30.02,29.99,10,9,5,15,7,21,0.09,2,Rain-Thunderstorm,355
2013-8-13,80,70,60,61,57,53,90,66,42,30.17,30.12,30.07,10,9,7,13,4,17,0.00,1,,52
2013-8-14,78,67,56,60,57,53,93,72,50,30.19,30.13,30.05,10,9,6,16,8,22,T,4,Rain,137
2013-8-15,70,67,63,63,61,58,93,81,68,30.10,30.05,30.01,10,9,2,17,8,21,0.25,7,Rain-Thunderstorm,127
2013-8-16,75,69,62,60,58,56,93,75,57,30.18,30.13,30.09,10,10,10,17,8,28,0.00,8,,129
2013-8-17,80,70,60,59,56,54,90,68,45,30.19,30.15,30.10,10,10,10,17,8,23,0.00,4,,159
2013-8-18,81,67,52,62,57,50,96,71,45,30.15,30.10,30.04,10,10,7,16,7,22,0.00,0,,173
2013-8-19,87,75,63,68,64,60,93,70,46,30.05,29.99,29.91,10,9,7,22,11,28,0.00,1,,181
2013-8-20,91,81,70,69,67,65,84,66,47,29.96,29.92,29.89,10,10,9,20,13,29,0.00,0,,194
2013-8-21,92,81,69,70,67,65,84,66,47,29.99,29.94,29.91,10,10,9,20,12,46,0.00,0,,188
2013-8-22,86,77,68,69,66,64,90,71,51,30.08,30.03,29.96,10,10,9,23,8,30,0.01,0,Rain,90
2013-8-23,92,82,71,69,68,66,93,69,44,30.06,30.00,29.94,10,10,8,21,11,28,T,2,,144
2013-8-24,94,85,75,70,68,65,79,63,46,30.03,29.99,29.96,10,10,9,26,16,36,0.00,0,,174
2013-8-25,96,85,73,71,69,68,84,63,42,30.09,30.04,30.01,10,10,9,22,15,26,0.00,0,,187
2013-8-26,97,86,75,69,68,66,79,59,38,30.06,30.00,29.92,10,10,10,23,14,28,0.00,0,,196
2013-8-27,98,85,72,68,65,61,74,55,35,29.95,29.92,29.88,10,10,10,22,13,28,0.00,0,,206
2013-8-28,95,81,67,68,63,61,84,60,36,29.99,29.96,29.92,10,10,10,15,7,18,0.00,0,,186
2013-8-29,98,83,68,71,68,64,93,66,38,29.99,29.94,29.88,10,10,10,18,7,23,0.00,0,,169
2013-8-30,100,85,70,76,69,64,90,62,33,29.89,29.86,29.82,10,10,9,17,6,21,0.00,0,,233
2013-8-31,96,84,72,72,69,65,93,65,36,29.87,29.82,29.76,10,10,10,20,4,24,T,0,Rain,154